Date,TemperatureHighF,TemperatureAvgF,TemperatureLowF,DewpointHighF,DewpointAvgF,DewpointLowF,HumidityHigh,HumidityAvg,HumidityLow,PressureMaxIn,PressureMinIn,WindSpeedMaxMPH,WindSpeedAvgMPH,GustSpeedMaxMPH,PrecipitationSumIn
2013-8-1,76.3,65.8,58.3,69.5,64.3,58.0,99,95,77,29.78,29.61,4,1,10,0.00
2013-8-2,80.4,68.6,61.3,69.0,60.9,55.2,99,79,48,29.63,29.54,5,2,13,0.00
2013-8-3,72.7,63.3,56.7,58.3,56.0,52.8,99,79,54,29.85,29.58,4,2,11,0.00
2013-8-4,76.8,63.9,54.3,61.9,56.7,51.9,99,79,56,29.91,29.85,3,1,8,0.00
2013-8-5,66.9,59.4,52.7,63.3,57.6,52.4,99,94,78,29.90,29.75,3,0,5,0.00
2013-8-6,70.7,60.2,48.0,56.5,53.0,47.8,99,79,54,30.00,29.85,2,0,5,0.00
2013-8-7,71.8,60.5,46.9,60.7,54.7,46.7,99,83,56,30.08,29.98,4,0,8,0.00
2013-8-8,71.4,60.4,51.1,68.2,58.0,50.8,99,92,72,30.08,29.94,3,0,5,0.00
2013-8-9,76.1,61.9,51.4,65.7,56.7,51.2,99,85,59,30.12,29.88,4,1,8,0.00
2013-8-10,69.3,59.9,52.2,57.3,53.6,50.8,98,81,63,30.14,29.99,2,0,4,0.00
2013-8-11,70.0,59.2,51.1,57.9,53.7,50.8,99,83,58,30.00,29.84,4,1,8,0.00
2013-8-12,74.1,59.9,51.3,60.6,53.2,49.4,99,81,50,30.04,29.85,5,1,9,0.00
2013-8-13,70.7,60.0,49.3,55.6,51.6,47.5,99,76,48,30.16,30.03,3,0,5,0.00
2013-8-14,77.9,63.8,52.5,64.1,57.8,50.6,99,82,55,30.16,29.95,4,1,9,0.00
2013-8-15,76.6,65.3,59.4,69.8,63.8,59.1,99,95,77,29.95,29.75,4,1,8,0.00
2013-8-16,77.5,64.1,52.2,63.2,58.8,51.9,99,84,55,29.90,29.74,2,0,6,0.00
2013-8-17,76.5,63.2,53.8,67.2,59.3,52.9,99,88,65,29.88,29.37,5,2,14,0.00
2013-8-18,70.7,59.0,51.8,57.1,53.2,50.3,97,82,58,29.82,29.47,4,1,11,0.00
2013-8-19,69.3,59.9,52.7,62.2,53.9,51.1,96,81,59,30.19,29.82,3,1,8,0.00
2013-8-20,70.5,60.7,53.2,61.1,57.2,52.8,99,89,67,30.25,30.16,2,0,7,0.00
2013-8-21,77.7,64.8,57.2,69.0,61.9,56.9,99,91,68,30.16,30.01,3,0,7,0.00
2013-8-22,63.9,58.6,54.0,63.6,58.3,53.7,99,99,99,30.14,30.03,4,1,9,0.00
2013-8-23,74.3,62.0,49.1,71.3,60.5,48.8,99,95,81,30.03,29.88,3,0,5,0.00
2013-8-24,70.5,61.3,56.3,65.0,59.5,56.0,99,94,74,29.98,29.90,2,0,4,0.00
2013-8-25,70.5,60.6,53.4,65.4,59.2,53.1,99,96,81,30.19,29.98,3,1,6,0.00
2013-8-26,74.8,61.9,53.2,68.4,59.7,53.0,99,93,71,30.19,30.09,4,0,7,0.00
2013-8-27,80.2,62.9,52.2,67.1,59.6,51.9,99,90,62,30.24,30.07,3,0,6,0.00
2013-8-28,75.4,60.2,52.2,66.0,56.7,48.4,99,89,70,30.24,30.10,4,1,7,0.00
2013-8-29,69.6,61.1,51.4,64.0,58.6,48.4,99,92,77,30.10,30.01,2,1,8,0.00
2013-8-30,78.6,62.5,50.4,67.4,58.8,46.3,99,89,66,30.08,29.82,5,1,11,0.00
2013-8-31,71.6,57.3,49.1,52.5,47.3,41.0,92,71,42,30.29,30.08,4,1,8,0.00